OE5ERN-10 Weather Reports


time (UTC)temp
C
wind
direction
speed
KPH
gust
KPH
rain 1hr
cm
rain 24hr
cm
rain mn
cm
humidity
%
barometer
mb
20260507224027 10 337 6.4 6.4 0.00 0.00 0.00 74 1020.8
20260507222527 9 292 3.2 3.2 0.00 0.00 0.00 75 1020.9
20260507221028 9 337 1.6 1.6 0.00 0.00 0.00 76 1020.7
20260507215527 8 337 6.4 6.4 0.00 0.00 0.00 75 1020.7
20260507214028 8 292 1.6 6.4 0.00 0.00 0.00 75 1020.7
20260507212528 9 315 4.8 4.8 0.00 0.00 0.00 74 1020.4
20260507211028 9 337 4.8 4.8 0.00 0.00 0.00 73 1020.2
20260507205528 9 315 4.8 4.8 0.00 0.00 0.00 72 1020.1
20260507204028 10 315 0.0 3.2 0.00 0.00 0.00 71 1020.1
20260507202528 10 315 1.6 3.2 0.00 0.00 0.00 71 1020.0
20260507201028 10 292 1.6 3.2 0.00 0.00 0.00 70 1019.7
20260507195528 10 337 0.0 0.0 0.00 0.00 0.00 68 1019.6
20260507194028 11 292 0.0 0.0 0.00 0.00 0.00 65 1019.4
20260507192528 11 292 0.0 0.0 0.00 0.00 0.00 64 1019.1
20260507191028 12 292 0.0 0.0 0.00 0.00 0.00 60 1019.0
20260507185528 13 315 0.0 0.0 0.00 0.00 0.00 58 1018.7
20260507184028 15 292 1.6 1.6 0.00 0.00 0.00 55 1018.4
20260507182528 15 270 6.4 6.4 0.00 0.00 0.00 53 1018.1
20260507181028 16 315 6.4 12.9 0.00 0.00 0.00 51 1017.9
20260507175528 17 292 12.9 12.9 0.00 0.00 0.00 48 1017.6
20260507174028 20 270 0.0 4.8 0.00 0.00 0.00 45 1017.3
20260507172528 20 270 9.7 9.7 0.00 0.00 0.00 45 1017.1
20260507171028 20 270 0.0 4.8 0.00 0.00 0.00 46 1017.1
20260507165528 20 270 4.8 4.8 0.00 0.00 0.00 47 1017.2
20260507164028 20 225 0.0 6.4 0.00 0.00 0.00 46 1017.2
20260507162528 20 292 17.7 17.7 0.00 0.00 0.00 45 1017.3
20260507161028 21 247 1.6 12.9 0.00 0.00 0.00 43 1017.2
20260507155528 21 270 1.6 1.6 0.00 0.00 0.00 43 1017.1
20260507154028 20 247 12.9 12.9 0.00 0.00 0.00 45 1017.1
20260507152528 20 292 6.4 9.7 0.00 0.00 0.00 44 1017.1
20260507151028 21 247 0.0 4.8 0.00 0.00 0.00 43 1017.0
20260507145528 21 225 3.2 9.7 0.00 0.00 0.00 43 1016.9
20260507144028 21 225 1.6 3.2 0.00 0.00 0.00 42 1017.0
20260507142528 22 247 4.8 20.9 0.00 0.00 0.00 41 1017.0
20260507141028 22 292 8.0 12.9 0.00 0.00 0.00 41 1016.9
20260507135528 22 247 3.2 8.0 0.00 0.00 0.00 40 1016.8
20260507134028 22 247 19.3 19.3 0.00 0.00 0.00 39 1016.8
20260507132528 22 202 0.0 6.4 0.00 0.00 0.00 39 1016.7
20260507131028 22 292 6.4 6.4 0.00 0.00 0.00 40 1016.6
20260507125528 22 225 11.3 11.3 0.00 0.00 0.00 41 1016.7
20260507124028 22 292 8.0 8.0 0.00 0.00 0.00 40 1016.6
20260507122528 22 270 16.1 16.1 0.00 0.00 0.00 40 1016.3
20260507121028 23 202 1.6 4.8 0.00 0.00 0.00 39 1016.4
20260507115528 23 135 4.8 9.7 0.00 0.00 0.00 39 1016.7
20260507114028 22 292 9.7 14.5 0.00 0.00 0.00 41 1016.9
20260507112528 22 292 25.7 25.7 0.00 0.00 0.00 40 1016.9
20260507111028 23 270 20.9 20.9 0.00 0.00 0.00 39 1016.9
20260507105528 23 292 9.7 9.7 0.00 0.00 0.00 38 1017.0
20260507104028 23 247 9.7 9.7 0.00 0.00 0.00 38 1017.0
20260507102528 22 0 6.4 6.4 0.00 0.00 0.00 39 1017.1
20260507101028 23 270 6.4 19.3 0.00 0.00 0.00 37 1017.1
20260507095528 24 225 4.8 14.5 0.00 0.00 0.00 35 1017.3
20260507094028 26 202 3.2 12.9 0.00 0.00 0.00 34 1017.1
20260507092529 27 292 14.5 22.5 0.00 0.00 0.00 33 1017.1
20260507091029 25 292 1.6 22.5 0.00 0.00 0.00 35 1017.1
20260507085529 28 315 17.7 17.7 0.00 0.00 0.00 32 1017.1
20260507084029 28 292 3.2 9.7 0.00 0.00 0.00 32 1017.0
20260507082529 27 247 12.9 12.9 0.00 0.00 0.00 33 1016.8
20260507081029 30 292 1.6 19.3 0.00 0.00 0.00 29 1016.7
20260507075529 30 247 3.2 6.4 0.00 0.00 0.00 31 1016.5
20260507074029 31 270 22.5 22.5 0.00 0.00 0.00 31 1016.4
20260507072529 29 337 3.2 12.9 0.00 0.00 0.00 32 1016.5
20260507071029 28 292 0.0 8.0 0.00 0.00 0.00 33 1016.5
20260507065529 29 337 8.0 8.0 0.00 0.00 0.00 33 1016.6
20260507064029 31 270 1.6 22.5 0.00 0.00 0.00 32 1016.7
20260507062529 30 292 4.8 4.8 0.00 0.00 0.00 34 1016.7
20260507061029 30 247 3.2 3.2 0.00 0.00 0.00 35 1016.7
20260507055529 23 247 0.0 8.0 0.00 0.00 0.00 50 1016.7
20260507054029 17 270 0.0 3.2 0.00 0.00 0.00 65 1016.6
20260507052529 13 315 0.0 0.0 0.00 0.00 0.00 78 1016.4
20260507051029 11 315 0.0 0.0 0.00 0.00 0.00 80 1016.4
20260507045529 10 292 0.0 0.0 0.00 0.00 0.00 82 1016.3
20260507044029 9 292 3.2 3.2 0.00 0.00 0.00 81 1016.0
20260507042529 8 292 0.0 0.0 0.00 0.00 0.00 81 1016.1
20260507041029 9 270 0.0 0.0 0.00 0.00 0.00 80 1015.7
20260507035529 9 180 0.0 0.0 0.00 0.00 0.00 80 1015.7
20260507034029 10 180 1.6 1.6 0.00 0.00 0.00 80 1015.5
20260507032529 9 180 3.2 3.2 0.00 0.00 0.00 80 1015.3
20260507031029 9 270 0.0 0.0 0.00 0.00 0.00 79 1015.2
20260507025529 9 247 0.0 0.0 0.00 0.00 0.00 79 1015.1
20260507024030 10 292 0.0 0.0 0.00 0.00 0.00 78 1015.1
20260507022529 10 247 1.6 1.6 0.00 0.00 0.00 78 1015.1
20260507021029 10 247 0.0 0.0 0.00 0.00 0.00 77 1015.1
20260507015529 10 292 0.0 0.0 0.00 0.00 0.00 77 1015.1
20260507014029 10 292 0.0 0.0 0.00 0.00 0.00 75 1014.9
20260507012529 11 270 0.0 0.0 0.00 0.00 0.00 75 1014.9
20260507011029 11 270 3.2 11.3 0.00 0.00 0.00 75 1014.8
20260507005529 12 292 3.2 3.2 0.00 0.00 0.00 75 1014.6
20260507004029 11 270 9.7 9.7 0.00 0.00 0.00 75 1014.5
20260507002529 12 292 0.0 0.0 0.00 0.00 0.00 74 1014.5
20260507001029 12 270 0.0 3.2 0.00 0.00 0.00 74 1014.7
20260506235529 12 270 0.0 0.0 0.00 0.00 0.00 75 1014.7
20260506234029 12 225 3.2 3.2 0.00 0.00 0.00 75 1014.5
20260506232529 12 247 3.2 3.2 0.00 0.00 0.00 74 1014.4
20260506231029 12 247 4.8 9.7 0.00 0.00 0.00 75 1014.4
20260506225529 12 225 3.2 9.7 0.00 0.00 0.00 75 1014.0